Temperature
28 29 29 28 28 28 28 29 29 28 28 27 26 25 23 22 21 20 20 19 19 18 18 17 17 17 17 16 16 16 16 16 16 16 16 16 16 16 16 16 16 16 16 16
27 28 28 28 28 28 28 28 28 28 27 26 24 23 22 21 21 20 20 19 18 18 17 17 17 16 16 16 16 16 16 16 16 15 15 15 15 15 15 15 15 15 15 15
27 27 27 26 27 27 28 28 28 28 26 24 23 22 21 20 20 20 19 18 18 17 17 17 16 16 16 16 16 16 16 15 15 15 15 15 15 15 15 15 15 15 15 15
27 25 25 26 26 26 26 26 26 26 24 24 22 20 19 18 19 18 18 17 17 17 16 16 16 16 16 16 16 16 15 15 15 15 15 15 15 15 15 15 15 15 14 14
26 25 26 24 24 25 25 25 25 24 23 22 20 20 19 17 17 17 17 16 16 16 16 16 16 16 16 15 15 15 15 15 15 15 15 15 14 14 14 14 14 14 14 14
25 25 25 25 24 23 24 24 23 23 22 21 21 23 20 16 16 16 15 16 15 15 15 15 15 15 15 15 15 15 15 15 15 15 14 14 14 14 14 14 14 14 13 13
25 25 25 23 22 23 24 24 21 21 21 20 21 20 17 15 15 15 15 15 15 15 15 15 15 15 15 14 14 14 14 14 14 14 14 14 14 14 14 13 13 13 13 13
24 24 24 21 22 23 21 19 19 19 19 18 17 16 15 14 14 14 14 14 14 14 14 14 14 14 14 14 14 14 14 14 14 14 13 13 13 13 13 13 13 12 12 12
23 21 19 19 19 17 18 18 18 18 17 16 15 15 14 14 14 14 14 14 14 14 14 14 14 14 14 13 13 13 13 13 13 13 13 13 13 12 12 12 12 12 11 11
20 18 17 17 16 16 16 16 16 16 16 15 15 14 14 13 13 13 13 13 13 13 13 13 13 13 13 13 13 13 13 13 13 12 12 12 12 12 12 11 11 11 11 11
19 18 17 16 15 15 15 15 15 15 14 14 14 13 13 12 12 12 12 12 12 12 12 12 12 12 12 12 12 13 12 12 12 12 12 12 12 11 11 11 11 11 10 10
20 18 19 16 14 14 14 14 14 14 13 13 13 12 12 12 12 12 12 12 12 12 12 12 12 12 12 12 12 12 12 11 11 11 11 11 11 10 10 10 10 10 10 9
17 16 15 14 13 13 13 13 13 12 12 12 12 11 11 11 11 11 11 11 11 11 11 11 11 11 11 11 11 11 11 11 10 10 10 10 10 9 9 8 8 8 8 8
14 14 13 13 12 12 12 12 12 11 11 11 11 11 11 10 10 10 10 10 10 10 10 10 10 10 10 10 10 10 10 10 10 9 9 9 9 8 8 8 7 7 7 7
13 13 13 12 11 11 11 11 11 10 10 10 10 10 10 10 10 10 10 10 10 10 10 10 10 9 9 10 10 10 10 9 9 9 9 8 8 8 8 7 7 6 6 6
12 12 11 11 11 11 11 10 10 10 10 9 9 9 10 10 10 9 9 9 10 9 9 9 9 9 9 9 9 9 9 9 9 8 8 8 8 8 7 7 7 6 6 6
12 11 11 10 10 10 10 10 10 9 9 9 9 9 9 9 9 9 9 9 9 8 8 8 8 8 8 8 8 8 8 8 8 8 8 7 7 7 7 7 6 6 5 5
12 12 11 11 10 10 9 9 9 9 9 9 9 9 9 9 8 8 8 8 8 8 8 8 8 8 8 8 8 8 8 8 7 7 7 7 6 6 6 6 6 5 5 5
11 11 10 10 10 9 9 9 9 9 9 9 8 8 8 8 8 8 8 8 8 7 7 7 7 7 7 7 8 8 8 8 7 7 7 6 6 6 6 6 5 5 5 5
10 10 9 9 9 9 9 9 9 8 8 8 8 8 8 8 8 7 7 7 7 7 7 7 7 7 7 7 7 8 7 7 7 7 6 6 6 6 6 5 5 5 5 4
10 9 9 9 9 9 9 9 8 8 8 8 8 8 7 7 7 7 7 7 7 7 7 7 7 7 7 7 7 7 7 7 7 7 6 6 6 6 5 5 5 5 4 4
9 9 9 9 9 8 8 9 8 8 8 8 8 8 8 7 7 7 7 7 7 7 7 7 7 7 7 7 7 7 7 7 7 6 6 6 5 5 5 5 5 4 4 4
9 9 9 9 9 8 8 8 8 8 8 8 8 8 8 8 8 7 7 7 7 7 7 7 7 7 7 7 7 7 6 6 6 6 6 5 5 5 5 4 4 4 4 4
9 9 9 9 9 8 8 8 8 8 8 8 8 8 8 8 7 7 7 7 7 6 6 6 6 6 6 6 6 6 6 6 6 6 5 5 5 5 4 4 4 4 4 3
9 9 9 9 9 9 8 8 8 8 8 8 8 7 8 7 7 7 6 6 6 6 6 6 6 6 6 6 6 6 6 6 5 5 5 5 5 4 4 4 4 4 3 3
9 9 9 9 9 9 8 8 8 8 8 8 7 7 7 7 7 6 6 6 6 6 6 5 5 5 5 5 5 5 5 5 5 5 5 5 5 4 4 4 3 3 3 3
9 9 8 9 9 9 9 9 8 8 8 8 7 7 7 7 6 6 6 6 6 6 5 5 5 5 5 5 5 5 5 5 5 5 4 4 4 4 4 3 3 3 3 3
Wind_Speed
8 6 11 13 14 14 14 12 10 7 6 6 7 7 7 7 8 8 8 8 7 6 5 4 5 4 4 4 3 4 4 5 4 4 4 4 5 5 5 5 6 6 6 6
9 8 10 11 12 13 11 10 8 6 4 5 6 6 7 7 8 8 8 7 6 6 5 4 4 4 4 3 4 4 4 5 4 5 5 5 6 6 6 5 5 5 6 5
11 11 11 13 11 11 10 8 8 7 4 8 7 7 7 7 7 7 7 6 6 5 5 4 4 4 4 4 4 5 4 5 5 6 6 6 6 6 6 5 5 5 5 5
9 11 15 5 4 5 6 5 3 3 6 7 8 8 7 5 6 6 5 5 5 5 4 4 4 4 4 5 5 5 4 4 5 6 7 6 6 6 6 6 6 6 6 6
10 13 10 5 6 7 7 5 4 6 8 9 10 10 7 6 6 5 5 4 4 4 5 4 4 4 5 5 5 5 5 5 5 6 7 7 7 6 6 7 7 7 6 7
10 13 12 7 8 5 5 7 6 7 8 8 8 6 5 6 6 6 5 5 5 5 5 5 4 4 5 5 6 5 5 5 5 6 7 8 8 7 6 7 7 7 8 8
12 11 5 6 8 7 8 4 8 6 6 7 3 3 8 7 6 6 6 6 6 6 5 5 4 5 6 6 5 5 5 5 5 6 6 7 7 7 7 7 8 9 10 9
11 12 6 6 7 5 3 6 6 5 5 6 8 9 9 8 7 7 6 7 7 6 6 5 5 6 7 6 5 6 6 6 6 6 5 6 7 6 7 8 9 9 9 9
1 1 6 4 5 5 4 5 5 5 6 8 9 9 8 8 7 7 6 6 6 7 7 6 6 7 8 6 6 7 8 7 7 7 6 6 6 7 7 7 7 7 7 7
3 5 6 5 6 5 5 5 4 5 7 9 9 9 8 8 7 7 6 7 7 8 8 7 7 7 7 6 7 9 9 8 8 8 7 7 6 6 6 6 7 7 7 7
4 6 7 6 5 5 5 5 6 7 8 9 10 9 9 8 7 7 7 7 8 8 9 9 8 8 8 7 8 10 10 9 9 10 11 11 11 10 9 8 6 6 7 7
3 6 4 6 5 5 6 7 8 9 10 9 9 10 9 8 8 8 9 9 9 10 10 10 9 10 9 8 9 10 10 9 8 9 9 10 12 13 20 17 19 19 16 12
5 7 8 8 7 7 8 9 9 10 10 10 10 10 11 10 9 9 10 10 11 11 11 10 10 10 9 9 10 11 11 9 8 8 9 9 10 11 12 14 19 19 17 16
9 9 8 8 7 8 10 11 11 11 11 10 11 11 12 12 11 11 11 11 11 12 11 11 11 11 9 10 11 11 11 11 9 8 9 9 9 10 10 10 10 11 12 14
6 5 8 10 10 11 12 13 14 13 12 12 11 12 13 13 13 12 11 11 12 12 12 12 12 11 10 11 11 11 10 9 9 9 9 9 9 9 10 10 10 9 9 9
9 10 12 12 12 12 13 14 14 14 13 13 13 13 13 14 13 12 11 11 12 12 11 11 11 10 10 11 11 10 11 13 10 9 9 9 9 9 9 9 9 8 7 7
11 12 13 13 13 13 13 13 14 14 14 14 14 14 14 14 14 13 12 12 12 12 11 11 11 10 10 10 10 9 10 10 11 9 9 8 8 8 8 8 8 8 8 7
9 11 13 15 14 14 14 14 14 14 14 15 15 14 14 14 14 13 12 12 13 13 12 11 10 10 10 10 9 8 8 8 8 8 8 8 8 7 7 8 8 8 7 7
11 13 14 15 15 15 15 14 14 14 14 14 14 14 13 13 13 13 12 12 12 12 10 9 8 9 10 9 8 8 8 9 9 8 8 8 7 7 7 7 7 7 6 6
14 16 16 16 15 15 15 15 15 14 14 14 15 15 14 13 12 12 11 10 8 8 8 8 8 9 9 8 4 8 9 9 9 8 7 7 7 7 7 7 6 6 6 5
17 18 18 17 16 15 15 15 15 15 14 14 14 14 14 13 11 10 10 10 9 8 9 8 7 8 8 6 5 8 8 8 8 7 7 7 7 6 6 6 5 5 5 5
17 18 18 17 17 16 14 14 14 15 14 14 14 14 13 12 11 10 10 8 8 5 6 8 8 9 6 4 7 7 7 7 7 6 6 6 6 5 5 5 5 4 4 4
16 17 17 17 17 16 15 14 14 14 14 14 14 13 12 10 9 9 9 7 8 6 7 8 9 7 2 5 7 7 7 6 6 6 6 5 5 5 4 4 4 3 3 3
16 16 16 16 16 16 15 14 13 12 13 12 12 11 11 9 8 8 9 9 8 8 9 9 7 4 1 5 6 6 6 5 5 5 5 5 4 4 4 3 3 3 3 3
16 16 16 16 15 13 14 14 14 13 12 11 11 10 8 8 9 9 10 10 9 9 10 8 5 1 3 6 6 5 5 5 4 4 4 4 4 4 3 3 3 3 3 2
14 13 12 12 12 12 12 11 11 11 11 10 10 9 9 9 10 9 9 10 10 8 8 7 6 4 5 5 5 5 5 4 4 3 4 3 3 3 3 3 3 2 2 2
14 12 11 11 11 10 10 10 11 10 10 10 10 9 9 9 9 9 9 9 8 7 6 6 5 5 5 5 4 4 3 3 3 3 3 3 3 2 3 2 1 1 1 1
Wind_Direction
231 207 196 201 201 205 220 236 241 228 214 173 164 156 146 140 137 136 137 136 131 124 115 111 110 116 120 129 143 149 149 144 148 147 148 149 152 154 157 162 171 174 174 173
208 202 205 208 203 202 212 225 232 223 193 130 133 136 137 140 145 142 139 134 131 125 118 113 108 109 113 124 139 140 139 140 133 131 134 138 139 141 142 147 155 153 154 152
204 192 198 209 204 203 204 211 224 222 169 140 140 134 134 138 142 140 136 135 134 128 122 119 118 114 113 120 128 130 133 135 135 133 127 128 130 127 125 125 126 125 125 124
201 188 215 176 153 204 199 194 205 139 135 137 128 118 109 116 126 126 128 132 134 131 124 123 120 120 121 125 128 129 133 135 134 130 127 123 119 121 121 116 111 106 104 106
209 212 206 162 174 184 191 186 176 159 141 131 130 127 106 93 98 102 105 115 123 123 120 115 114 119 124 125 127 126 129 133 135 135 133 131 126 121 120 117 112 107 104 99
218 224 220 181 154 166 198 194 159 160 155 154 170 184 129 104 94 90 88 100 111 112 108 105 107 117 121 124 123 122 123 127 130 133 133 132 130 128 123 121 118 112 100 93
219 224 212 121 145 171 209 163 137 153 160 169 172 82 112 110 95 89 90 95 101 103 98 93 100 113 111 110 111 112 112 112 115 123 129 132 130 127 125 121 113 105 99 91
217 222 199 133 170 188 85 102 129 139 146 133 111 110 114 109 103 98 95 96 100 99 89 81 87 105 103 100 101 103 102 102 104 109 116 121 121 122 123 120 114 110 105 96
229 107 86 94 87 78 102 122 125 129 131 131 128 126 121 112 103 97 94 94 98 98 92 82 79 90 96 94 100 101 99 97 97 98 101 107 115 123 121 117 116 114 111 105
129 113 112 103 95 89 96 111 123 132 134 136 132 130 124 115 107 100 95 95 99 99 93 83 75 77 83 88 95 100 98 98 98 98 93 84 80 87 98 103 110 112 108 104
145 134 134 123 103 95 99 108 120 124 128 131 130 127 122 116 111 107 103 98 96 95 93 87 84 83 84 92 99 99 98 96 94 93 94 85 74 60 69 60 63 91 100 100
159 144 144 129 118 114 114 112 115 118 116 117 123 123 118 113 109 107 104 100 97 94 92 88 86 84 81 87 97 102 101 99 99 100 100 100 97 82 61 65 61 60 59 76
108 114 108 117 115 111 111 111 111 112 114 114 115 116 115 111 106 103 103 101 99 96 93 89 84 81 79 86 92 95 98 98 99 100 104 105 105 103 97 78 68 64 64 70
119 118 120 125 119 115 114 111 109 107 106 110 113 113 111 108 105 102 101 101 99 96 94 92 88 84 84 90 93 96 98 96 99 98 98 98 99 102 103 104 98 85 73 74
140 129 129 127 123 121 119 118 113 109 108 108 110 111 110 107 103 99 98 100 100 96 93 92 89 86 88 93 96 97 98 97 93 93 93 94 97 97 96 96 97 98 99 92
131 125 128 129 128 128 127 124 119 118 117 115 111 109 107 105 102 99 97 98 99 96 94 93 90 91 95 97 97 95 93 90 92 96 95 94 94 95 96 98 98 96 93 92
145 145 143 138 136 133 130 127 124 123 120 118 115 114 111 108 104 99 97 95 93 92 91 92 93 95 97 99 101 103 104 103 104 100 97 96 96 96 96 97 97 95 87 66
154 151 149 144 140 133 129 126 123 122 122 121 119 115 113 111 109 106 104 103 99 91 85 88 92 95 96 97 99 102 105 106 103 101 102 100 101 103 103 102 102 101 101 97
139 139 137 136 136 132 130 127 125 123 122 122 119 115 112 109 108 108 108 105 102 97 90 91 92 98 97 96 101 108 107 108 106 105 106 111 111 105 104 103 102 101 100 95
133 133 132 133 133 130 129 128 126 124 124 124 121 118 114 111 111 109 105 97 89 94 103 101 105 99 101 99 99 107 107 109 110 111 113 112 107 106 103 101 100 98 95 91
137 135 135 135 133 130 130 130 129 128 129 128 125 122 119 118 117 116 113 103 93 97 105 106 103 104 105 107 109 106 109 111 112 114 113 110 108 106 103 100 98 96 94 92
138 138 137 135 133 131 132 133 133 132 130 128 125 123 123 121 116 109 99 100 108 107 112 105 100 89 91 114 108 105 107 108 108 109 108 108 108 106 103 99 95 93 90 88
138 138 137 136 135 134 133 134 134 133 131 130 130 130 126 120 120 120 116 111 114 105 100 96 93 90 83 109 103 107 106 107 108 110 110 110 109 109 107 104 99 97 93 92
138 137 135 134 134 135 134 133 130 128 125 123 123 125 124 120 115 110 109 106 98 104 101 97 95 91 124 112 109 108 109 111 113 115 115 115 113 110 108 107 106 102 99 96
136 135 135 137 137 135 133 132 129 128 124 122 123 125 121 116 118 116 115 117 119 116 112 110 110 129 125 108 111 109 104 93 93 104 110 114 121 120 119 115 109 106 104 100
135 136 136 137 133 135 139 138 136 136 133 130 126 123 118 117 119 121 123 126 124 121 121 126 129 145 114 111 109 107 109 116 117 113 112 125 120 117 118 118 124 118 110 96
128 127 127 129 131 136 137 138 137 137 137 134 131 130 130 130 129 130 130 131 133 131 127 128 127 122 119 117 115 115 115 114 113 119 129 127 122 122 125 135 133 127 142 120
Height
1440 1438 1440 1446 1450 1453 1454 1452 1457 1457 1459 1464 1469 1474 1479 1482 1486 1488 1491 1493 1494 1495 1496 1497 1498 1498 1498 1499 1499 1500 1500 1501 1501 1502 1503 1505 1507 1509 1512 1514 1517 1519 1521 1524
1446 1443 1443 1447 1447 1450 1452 1452 1453 1454 1460 1465 1471 1476 1480 1483 1485 1488 1490 1492 1494 1495 1496 1497 1498 1498 1499 1499 1499 1500 1500 1501 1502 1502 1504 1505 1507 1509 1511 1514 1516 1518 1520 1522
1447 1445 1449 1455 1449 1449 1451 1451 1452 1456 1461 1468 1472 1477 1481 1483 1486 1488 1490 1492 1494 1495 1496 1497 1498 1498 1499 1499 1500 1500 1500 1501 1502 1503 1505 1506 1508 1510 1511 1513 1515 1517 1519 1521
1443 1453 1464 1449 1449 1449 1451 1454 1456 1459 1464 1469 1474 1480 1483 1485 1487 1488 1490 1492 1493 1495 1496 1497 1498 1498 1499 1499 1500 1500 1501 1501 1502 1504 1505 1507 1508 1510 1512 1514 1515 1517 1519 1520
1443 1450 1449 1455 1452 1452 1455 1458 1460 1462 1467 1472 1477 1480 1483 1486 1487 1489 1490 1492 1493 1494 1495 1496 1497 1498 1498 1499 1500 1500 1501 1502 1503 1505 1506 1508 1509 1510 1512 1514 1515 1517 1519 1521
1443 1450 1455 1448 1451 1455 1456 1461 1463 1465 1469 1473 1475 1473 1481 1486 1488 1489 1490 1491 1493 1494 1495 1496 1496 1497 1498 1498 1500 1500 1501 1502 1504 1505 1507 1508 1510 1511 1513 1514 1516 1518 1519 1521
1443 1446 1443 1448 1453 1457 1462 1459 1465 1467 1470 1473 1474 1476 1483 1486 1487 1489 1490 1491 1492 1493 1494 1495 1496 1497 1497 1498 1499 1500 1501 1503 1504 1506 1507 1509 1511 1512 1514 1515 1517 1518 1520 1521
1441 1446 1451 1454 1455 1455 1460 1464 1466 1469 1472 1475 1478 1480 1483 1486 1487 1489 1490 1491 1492 1493 1494 1495 1496 1496 1497 1498 1499 1500 1501 1503 1505 1506 1508 1510 1511 1513 1514 1516 1517 1519 1520 1521
1443 1451 1457 1458 1459 1463 1464 1466 1468 1471 1473 1476 1479 1481 1484 1486 1487 1489 1491 1492 1493 1493 1494 1495 1496 1497 1497 1498 1500 1501 1502 1503 1505 1507 1508 1510 1512 1513 1515 1516 1518 1520 1521 1522
1450 1455 1460 1462 1464 1465 1466 1468 1470 1472 1474 1477 1479 1482 1484 1486 1488 1489 1491 1492 1493 1494 1495 1496 1497 1498 1498 1500 1501 1502 1503 1504 1506 1507 1509 1510 1512 1514 1516 1518 1519 1521 1522 1523
1451 1458 1462 1464 1466 1467 1468 1469 1471 1473 1475 1477 1479 1482 1484 1486 1488 1490 1491 1492 1493 1495 1496 1497 1498 1499 1500 1501 1503 1503 1504 1506 1507 1509 1510 1511 1513 1514 1516 1518 1520 1521 1522 1524
1447 1456 1458 1464 1467 1468 1469 1470 1472 1473 1476 1478 1480 1482 1484 1486 1488 1490 1492 1493 1495 1496 1497 1499 1500 1501 1502 1504 1505 1505 1506 1508 1510 1511 1512 1513 1514 1516 1518 1520 1521 1522 1523 1524
1455 1458 1461 1465 1467 1469 1470 1471 1473 1475 1477 1479 1482 1483 1485 1487 1489 1491 1493 1495 1497 1498 1500 1501 1502 1503 1505 1506 1507 1508 1509 1510 1512 1514 1515 1516 1517 1518 1519 1522 1524 1525 1526 1527
1458 1460 1464 1466 1469 1470 1472 1473 1475 1477 1479 1481 1483 1485 1487 1489 1492 1494 1496 1499 1500 1501 1503 1504 1505 1506 1507 1509 1510 1510 1512 1513 1515 1516 1518 1519 1520 1522 1523 1525 1526 1528 1530 1530
1459 1461 1464 1467 1469 1471 1473 1475 1476 1479 1481 1484 1486 1488 1490 1492 1495 1497 1499 1501 1503 1505 1506 1507 1508 1510 1511 1512 1513 1514 1515 1517 1519 1520 1521 1523 1524 1526 1527 1529 1531 1532 1533 1534
1460 1462 1465 1468 1470 1473 1475 1477 1479 1481 1484 1487 1489 1491 1493 1495 1498 1500 1502 1504 1506 1507 1509 1510 1511 1513 1514 1515 1516 1518 1519 1520 1522 1524 1525 1527 1528 1530 1531 1533 1534 1536 1537 1538
1459 1463 1466 1469 1472 1475 1477 1479 1481 1484 1487 1489 1492 1495 1497 1499 1501 1504 1506 1508 1510 1511 1513 1514 1515 1517 1518 1519 1521 1522 1523 1525 1526 1528 1529 1531 1532 1533 1535 1536 1538 1539 1540 1540
1460 1463 1465 1468 1472 1475 1479 1482 1484 1487 1490 1493 1495 1498 1501 1503 1505 1507 1510 1512 1514 1515 1517 1518 1519 1521 1522 1523 1525 1526 1528 1529 1530 1532 1533 1534 1535 1537 1538 1539 1540 1541 1542 1543
1461 1464 1467 1470 1474 1477 1481 1484 1488 1491 1493 1496 1499 1502 1505 1507 1509 1512 1514 1516 1518 1519 1521 1522 1523 1525 1526 1527 1528 1530 1531 1532 1534 1535 1536 1537 1539 1540 1541 1542 1543 1544 1545 1545
1462 1465 1469 1473 1477 1480 1484 1487 1491 1494 1497 1500 1503 1506 1508 1511 1514 1516 1518 1520 1522 1523 1524 1526 1527 1529 1530 1530 1532 1534 1535 1536 1537 1538 1539 1541 1542 1543 1544 1545 1546 1546 1546 1547
1464 1467 1471 1475 1480 1484 1488 1491 1494 1498 1501 1504 1507 1509 1512 1515 1518 1520 1522 1523 1525 1526 1528 1529 1531 1532 1533 1534 1535 1537 1538 1539 1540 1541 1542 1543 1544 1545 1546 1546 1547 1547 1547 1547
1466 1470 1474 1478 1482 1487 1491 1495 1498 1501 1504 1508 1511 1513 1516 1518 1521 1523 1525 1526 1528 1529 1531 1533 1534 1534 1535 1537 1538 1539 1540 1541 1542 1543 1544 1545 1546 1546 1547 1548 1548 1548 1548 1548
1469 1473 1477 1481 1486 1490 1494 1498 1502 1505 1508 1511 1514 1517 1519 1522 1524 1526 1528 1530 1531 1532 1534 1535 1535 1536 1538 1540 1541 1541 1542 1543 1544 1545 1545 1546 1547 1548 1548 1548 1549 1549 1549 1549
1472 1476 1481 1485 1489 1493 1497 1501 1505 1508 1511 1514 1517 1519 1522 1524 1527 1529 1530 1531 1532 1534 1535 1536 1537 1539 1540 1542 1543 1543 1544 1545 1546 1546 1547 1547 1548 1548 1549 1549 1549 1550 1549 1549
1475 1480 1484 1488 1492 1496 1500 1504 1507 1511 1514 1517 1520 1522 1525 1527 1529 1530 1532 1533 1535 1536 1537 1538 1539 1541 1543 1544 1544 1545 1546 1546 1547 1547 1548 1548 1549 1549 1549 1550 1550 1550 1550 1550
1478 1483 1487 1491 1495 1498 1502 1506 1509 1513 1516 1519 1522 1524 1527 1529 1531 1532 1534 1536 1537 1538 1540 1541 1542 1543 1544 1545 1545 1546 1547 1547 1548 1548 1549 1549 1549 1549 1549 1550 1550 1550 1550 1550
1482 1486 1490 1494 1498 1502 1505 1508 1512 1515 1518 1520 1523 1526 1528 1531 1533 1534 1536 1538 1539 1540 1541 1542 1543 1544 1545 1546 1546 1547 1548 1548 1548 1549 1549 1549 1550 1550 1550 1549 1550 1550 1549 1549